Regional Weather Roundup
Issued by NWS Upton, NY

Current Version | Previous Version | Text Only | Print | Product List | Glossary On
Versions: 1 2 3 4 5 6 7 8 9 10 11 12 13 14 15 16 17 18 19 20 21 22 23 24 25 26
000 ASUS41 KOKX 181908 RWROKX REGIONAL WEATHER ROUNDUP NATIONAL WEATHER SERVICE NEW YORK NY 200 PM EST WED JAN 18 2017 NOTE: "FAIR" INDICATES FEW OR NO CLOUDS BELOW 12,000 FEET WITH NO SIGNIFICANT WEATHER AND/OR OBSTRUCTIONS TO VISIBILITY. NYZ071-072-176-178-NJZ106-104-182000- NEW YORK CITY METRO AREA CITY SKY/WX TMP DP RH WIND PRES REMARKS Central Park CLOUDY 40 38 93 VRB5 29.97R Wall St Helipt CLOUDY 42 38 85 VRB5 29.95R Bronx Bot Gard NOT AVBL LaGuardia APRT CLOUDY 44 38 79 N8 29.94R Kennedy INTL CLOUDY 42 36 79 N12 29.95R Breezy Point NOT AVBL Newark/Liberty CLOUDY 42 38 85 N9 29.94R Teterboro CLOUDY 42 37 82 N9 29.94R FOG $$ NYZ177-179-078>081-182000- LONG ISLAND NEW YORK CITY SKY/WX TMP DP RH WIND PRES REMARKS Jones Beach NOT AVBL Matinecock PT NOT AVBL Farmingdale CLOUDY 41 37 86 N13 29.92R MacArthur/ISP CLOUDY 40 38 93 N13 29.91R WCI 32 Shirley CLOUDY 40 39 97 N8 29.91R FOG WCI 34 Westhampton CLOUDY 41 37 86 N13 29.91R Southampton NOT AVBL Bridgehampton NOT AVBL East Hampton CLOUDY 40 38 92 N7 29.89R Montauk N/A 42 40 92 N12 29.89R $$ NYZ052-065-067-182000- HUDSON VALLEY CITY SKY/WX TMP DP RH WIND PRES REMARKS White Plains CLOUDY 39 36 89 N10 29.93R FOG WCI 32 Newburgh CLOUDY 39 37 93 NE6 29.95R WCI 35 Montgomery CLOUDY 39 36 89 NE7 29.94R WCI 34 Poughkeepsie CLOUDY 38 36 92 N5 29.95R WCI 34 Albany DRZL/FOG 36 34 92 CALM 29.97S VSB 1 $$ NJZ001-105-106-008-010-013-015-019>022-104-182000- NEW JERSEY CITY SKY/WX TMP DP RH WIND PRES REMARKS Newark/Liberty CLOUDY 42 38 85 N9 29.94R Teterboro CLOUDY 42 37 82 N9 29.94R FOG Caldwell CLOUDY 41 37 86 VRB3 29.95R Somerville CLOUDY 43 37 79 NE6 29.93R Linden CLOUDY 42 37 84 CALM 29.94R Sussex CLOUDY 40 37 89 N3 29.95R Andover N/A 37 36 96 VRB3 29.94R Trenton CLOUDY 43 41 93 N3 29.93R Millville CLOUDY 48 44 86 N12 29.91S Atlantic City CLOUDY 46 41 82 N14 29.90S Wrightstown CLOUDY 43 41 93 NW10 29.90R Toms River CLOUDY 41 39 93 N8 29.93R FOG Belmar CLOUDY 40 40 100 N9 29.93R FOG WCI 34 $$ PAZ047>061-062-071-182000- EASTERN PENNSYLVANIA CITY SKY/WX TMP DP RH WIND PRES REMARKS Philadelphia CLOUDY 48 41 76 N9 29.93S Allentown CLOUDY 45 38 76 CALM 29.93S Scranton CLOUDY 41 39 93 CALM 29.92S $$ CTZ002-004>006-009-010-012-RIZ004-006-007-MAZ004-011-015-182000- SOUTHERN NEW ENGLAND IN CT CITY SKY/WX TMP DP RH WIND PRES REMARKS Bradley INTL DRIZZLE 37 36 96 N8 29.96R FOG WCI 31 Hartford CLOUDY 37 36 96 N9 29.95R FOG WCI 30 Danbury CLOUDY 38 35 89 N7 29.95R WCI 33 Wtrbury/Oxford CLOUDY 36 32 87 N12 29.93R FOG WCI 27 Bridgeport CLOUDY 41 36 82 N12 29.93R Meriden CLOUDY 39 35 86 N8 29.94R WCI 33 New Haven CLOUDY 39 36 89 N14 29.92R WCI 31 Chester N/A 39 37 93 N8 29.91R FOG WCI 34 Groton CLOUDY 42 39 89 N13 29.90R Wilimantic CLOUDY 40 37 89 N6 29.94R IN RI CITY SKY/WX TMP DP RH WIND PRES REMARKS Providence LGT RAIN 41 39 93 N13 29.92R FOG Block Island NOT AVBL Westerly CLOUDY 43 38 82 NE9 29.91R IN MA CITY SKY/WX TMP DP RH WIND PRES REMARKS Boston LGT RAIN 39 38 96 NE15 29.97R FOG WCI 31 Worcester FOG 31 29 92 NE9 29.92R VSB 1 WCI 23 Westfield CLOUDY 36 32 85 N9 29.96R WCI 29 Provincetown CLOUDY 40 39 97 E14 29.94R FOG WCI 32 Nantucket LGT RAIN 43 40 89 E17G24 29.85R FOG $$ ANZ330-335-338-340-345-350-353-355-182000- COASTAL MARINE OBSERVATIONS STATION/POSITION TIME SKY/WX TEMP WIND PRES VSBY WAVE AIR SEA DIR/SP/G HT/PER (UTC) (F) (DEG/KT/KT) (MB) (MI) (FT/S) NY HARB ENTRANCE 1750 41 44 10/ 12/ 16 1012.3 4/ 6 20 S FIRE ISLAND 1850 41 45 10/ 16/ 19 1011.8 6/ 7 GREAT SOUTH BAY NOT AVBL 23 SSW MONTAUK P 1750 43 47 30/ 19/ 23 1010.8 7/ 7 15 E BARNEGAT LI 1830 47 N/A 5/ 6 HUDSON CANYON 1750 50 53 1008.3 5/ 8 KINGS POINT 1842 40 38 1013.5 EXECUTION ROCKS 1845 40 360/ 8/ 10 N/A CENTRAL LI SOUND 1815 41 20/ 12/ 14 N/A 2/ 5 EASTERN LI SOUND NOT AVBL ROBBINS REEF 1848 40 350/ 11/ 14 1014.0 $$ >>>>>>>>>>>>>>>>>>>>>>>>>>>> KEY <<<<<<<<<<<<<<<<<<<<<<<<<<< > < > SKY/WX - Sky Condition/Present Weather < > TMP - Temperature in Fahrenheit < > DP - Dew Point in Fahrenheit < > RH - Relative Humidity in Percent < > WIND - Direction (from) and Speed in MPH < > PRES - Mean Sea Level Pressure (inches of Hg) < > WCI - Wind Chill Index < > VSB - VISIBILITY IN MILES < > HX - HEAT INDEX < > TC - TEMPERATURE IN CELSIUS < > VRB - VARIABLE WIND DIRECTION < > < >>>>>>>>>>>>>>>>>>>>>>>>>>>> KEY <<<<<<<<<<<<<<<<<<<<<<<<<<<

USA.gov is the U.S. government's official web portal to all federal, state and local government web resources and services.